Regional Weather Roundup
Issued by NWS

Home | Current Version | Previous Version | Text Only | Print | Product List | Glossary On
Versions: 1 2 3 4 5 6 7 8 9 10 11 12 13 14 15 16 17 18 19 20 21 22 23 24 25 26 27 28 29 30 31 32 33 34 35 36 37 38 39 40 41 42 43 44 45 46 47 48 49 50
000
ASUS45 KTFX 280310
RWRMT
MONTANA REGIONAL WEATHER ROUNDUP
NATIONAL WEATHER SERVICE GREAT FALLS MT
900 PM MDT WED MAY 27 2015

NOTE: "FAIR" INDICATES FEW OR NO CLOUDS BELOW 12000 FEET WITH NO
SIGNIFICANT WEATHER AND/OR OBSTRUCTIONS TO VISIBILITY.

MTZ001>007-043-280400-
WEST OF THE DIVIDE

CITY           SKY/WX    TMP DP  RH WIND       PRES   REMARKS
KALISPELL      MOCLDY    62  47  57 CALM      29.97R
MISSOULA       CLOUDY    62  43  49 NW7       30.00R
BUTTE          LGT RAIN  50  42  74 CALM      30.06R
MULLAN PASS    PTCLDY    48  42  80 CALM      30.08S
DEER LODGE       N/A     50  43  76 NE7       30.08R
EUREKA           N/A     66  48  52 E3        29.95S
HAMILTON         N/A     52  46  82 SW8       30.02F
LIBBY            N/A     64  46  52 W3        29.96S
RONAN            N/A     63  47  55 W1        30.04F
$$

MTZ008-052>055-280400-
SOUTHWEST MONTANA

CITY           SKY/WX    TMP DP  RH WIND       PRES   REMARKS
BOZEMAN        MOCLDY    53  45  74 NE3       30.01S
DILLON         PTCLDY    50  43  77 CALM      30.04R
W YELLOWSTONE  MOCLDY    43  41  93 CALM      30.10S
THREE FORKS      N/A     57  57 100 CALM      30.01F
TWIN BRIDGES     N/A     52  42  68 CALM      30.03S
$$

MTZ009-010-012-014-046-048-049-054-280400-
EAST SLOPES AND CENTRAL MONTANA

CITY           SKY/WX    TMP DP  RH WIND       PRES   REMARKS
CUT BANK       MOCLDY    53  49  86 W6        29.97S
GREAT FALLS    MOCLDY    58  49  72 NW3       29.96S
MALMSTROM AFB  CLEAR     60  48  64 N5        29.96S
HELENA         CLOUDY    57  45  64 CALM      29.99R
CONRAD           N/A     55  54  97 N2        30.00S
$$

MTZ011-013-016-021-045-047-050-051-280400-
NORTH CENTRAL MONTANA

CITY           SKY/WX    TMP DP  RH WIND       PRES   REMARKS
HAVRE          MOCLDY    58  53  84 MISG      29.92R
LEWISTOWN      CLOUDY    56  51  84 CALM      29.98R
N BAR RANCH    FAIR      54  48  82 NW3       30.00S
CHINOOK          N/A     61  52  72 SW3       29.92R
FORT BENTON      N/A     59  48  67 S3        29.95S
$$

MTZ017>020-022>027-061-062-280400-
NORTHEAST MONTANA

CITY           SKY/WX    TMP DP  RH WIND       PRES   REMARKS
GLASGOW        CLOUDY    66  54  65 CALM      29.88R
JORDAN           N/A     61  54  77 CALM      29.90R
SIDNEY         PTCLDY    57  54  88 CALM      29.91R
WOLF POINT     CLOUDY    65  56  72 CALM      29.89R
MALTA            N/A     64  48  56 NW7       29.86F
PLENTYWOOD       N/A     61  52  72 E7        29.93R
POPLAR           N/A     63  54  72 E5        29.90R
$$

MTZ028>42-056>058-280400-
SOUTHCENTRAL AND SOUTHEAST MONTANA

CITY           SKY/WX    TMP DP  RH WIND       PRES   REMARKS
BAKER          PTCLDY    55  53  93 S8        29.94S
BILLINGS       MOCLDY    57  48  72 SW8       29.95F
LIVINGSTON     PTCLDY    55  43  63 SW14      30.00R
MILES CITY     CLOUDY    58  57  97 W7        29.91R
BIG TIMBER       N/A     54  45  71 S6        30.01S
FORSYTH          N/A     63  55  77 CALM      29.92S
LAUREL           N/A     55  40  57 CALM      29.96F
ROUNDUP          N/A     61  49  64 CALM      29.88S
$$

REGIONAL REPORTS...DAKOTAS

CITY           SKY/WX    TMP DP  RH WIND       PRES   REMARKS
WILLISTON      CLOUDY    63  53  70 SE8       29.91R
MINOT          CLOUDY    63  54  72 SW5       29.94R
DICKINSON      CLOUDY    56  55  97 SE9       29.90F
BEACH          CLOUDY    57  57 100 S6        29.93F
CROSBY         FAIR      59  59 100 NE5       29.95R
WATFORD CITY   CLOUDY    59  55  88 S7        29.89R
BISMARCK       CLOUDY    65  56  72 NW15      29.98R
GRAND FORKS    MOCLDY    62  51  67 NW3       29.98R
FARGO          CLOUDY    72  53  51 NW16      29.99R
BUFFALO SD       N/A     57  55  93 E7        29.89R
RAPID CITY     CLEAR     62  53  72 S8        29.91R
$$

REGIONAL REPORTS...WYOMING/IDAHO/WASHINGTON

CITY           SKY/WX    TMP DP  RH WIND       PRES   REMARKS
GILLETTE       LGT RAIN  59  55  87 SE3       29.96S
SHERIDAN       CLOUDY    57  52  83 SW3       29.98R
BUFFALO WY     LGT RAIN  57  51  80 NW13      30.01R
CODY           MOCLDY    54  43  66 N7        30.02R
YELLOWSTONE LA   N/A     40  36  86 CALM      30.16R
IDAHO FALLS    CLOUDY    54  46  74 W9        30.06R
SALMON         PTCLDY    52  45  76 N5        30.02R
BOISE          CLEAR     69  39  33 N8        29.96S
SPOKANE        PTCLDY    70  46  42 SE6       29.97R
$$

REGIONAL REPORTS...ALBERTA

CITY           SKY/WX    TMP DP  RH WIND       PRES   REMARKS
EDMONTON       PTCLDY    64  46  52 N15       29.89R
CALGARY        MOCLDY    66  43  42 NW9       29.95R
LETHBRIDGE     MOCLDY    63  48  59 SW13      29.94R
MEDICINE HAT   MOCLDY    61  52  72 N12       29.92R
$$

REGIONAL REPORTS...SASKATCHEWAN

CITY           SKY/WX    TMP DP  RH WIND       PRES   REMARKS
SWIFT CURRENT  MOCLDY    57  48  72 E5        29.93S
REGINA         MOCLDY    64  48  55 SE12      29.94R
SASKATOON      MOCLDY    63  41  45 E3        29.94F
$$


USA.gov is the U.S. government's official web portal to all federal, state and local government web resources and services.